Find Cartosat-2 Series Satellite

NORAD ID: 43111 Int'l Des: 2018-004 Owner: ISRO Country: IN operational
LEOCIRCULARRETROGRADESSO

リアルタイム位置

3D地球を読み込み中...

Cartosat-2 Series Satelliteについて

説明を読み込み中...

次回通過

Passes for default location (London). Set your location on the main map for personalized predictions.

高度履歴

Loading altitude history...

軌道要素

1 43111U 18004A 26135.07839208 .00001216 00000-0 61032-4 0 9993
2 43111 97.4749 195.0309 0001672 54.3967 305.7423 15.19196707462304
Epoch: May 15, 2026 • Age: 21 hours

現在のステータス

高度 510.9 km
速度 7.61 km/s
衛星直下点 28.74°N, 20.26°W
打ち上げ日 Jan 12, 2018
運用期間 8.3 years
タイプ other

技術仕様

分類 Payload
質量 712.00 kg
乾燥質量 639.00 kg
総質量 712.00 kg
長さ 3.50 m
直径 2.00 m
スパン 8.00 m
形状 Hex Cyl + 2 Pan
製造者 ISRO
バスタイプ IRS-2
フェーズステータス In Orbit
所有者/国 ISRO/IN

Most Searched